Location: Courcelles
(49.2596°N, 1.7419°E)
Time: 06:35:44
(UTC+00:00)

ARIANE 5 R/B - Pass Details

Date: 17 November 2025
Orbit: 746 x 792 km, 98.8° (Epoch: 06 December)

Event Time Altitude Azimuth Distance (km) Brightness Sun altitude
Rises 16:40:05 0° 145° (SE) 3,181 5.6 -5.4°
Reaches altitude 10° 16:42:26 10° 139° (SE) 2,261 4.8 -5.8°
Maximum altitude 16:47:09 46° 67° (ENE) 1,006 2.7 -6.5°
Drops below altitude 10° 16:51:56 10° 355° (N) 2,286 4.8 -7.2°
Sets 16:54:18 0° 350° (N) 3,220 5.6 -7.6°
